Bezoek onze andere website:

Meteotemplate

Home Weather Station

Saratoga


Lokaal brand risico:
CBI


Regionaal brand risico: Meer informatie



Select another period ( hide this area )

Eenheden Periode Custom range Directly to
Metrisch Engels Beide
Dagelijkse Wekelijkse Maandelijkse Jaarlijkse
use both date-selectors for a custom range
previous Dag
With this date

WeatherUnderground graphs for this period ( click here )


Dagelijkse Samenvatting Zondag 19 augustus 2018
Tijd Temp. ( °C ) Dew pt. ( °C ) Wind ( km/h ) van Windvlaag ( km/h ) Luchtdruk ( hPa ) Humid.( % ) Rainrate ( cm )
Hoog16,7 14,2 1,8 ZZW ( 2/2 ) 4,8 1022,2 95 -
Gemiddeld13,8 12,4 0,0 Kalm #95/96 0,1 1021,8 91 -
Laag12,1 11,0 -   0,0 1021,2 85 -
Dagelijkse Tabular details for Zondag 19 augustus 2018
Tijd Temp. ( °C ) Dew pt. ( °C ) Wind ( km/h ) van Windvlaag ( km/h ) Luchtdruk ( hPa ) Humid.( % ) Rainrate ( cm )
00:04 16,7 14,2   Kalm   1022,2 85 -
00:09 16,7 14,2   Kalm   1022,2 85 -
00:14 16,7 14,2   Kalm   1022,2 85 -
00:19 16,7 14,2   Kalm   1022,2 85 -
00:24 16,7 14,2   Kalm   1022,2 85 -
00:29 16,7 14,2   Kalm   1022,2 85 -
00:34 16,7 14,2   Kalm   1022,2 85 -
00:39 16,7 14,2   Kalm   1022,2 85 -
00:44 16,7 14,2   Kalm   1022,2 85 -
00:49 16,7 14,2   Kalm   1022,2 85 -
00:54 16,7 14,2   Kalm   1022,2 85 -
00:59 16,7 14,2   Kalm   1022,2 85 -
01:04 16,7 14,2   Kalm   1022,2 85 -
01:09 16,6 14,1   Kalm   1022,2 85 -
01:14 16,5 14,1   Kalm   1022,2 86 -
01:19 16,3 13,8   Kalm   1022,2 85 -
01:24 16,2 13,9   Kalm   1022,2 86 -
01:29 16,0 13,7   Kalm   1022,2 86 -
01:34 15,8 13,5   Kalm   1022,2 86 -
01:39 15,6 13,4   Kalm   1022,2 87 -
01:44 15,4 13,2   Kalm   1022,2 87 -
01:49 15,3 13,1   Kalm   1022,2 87 -
01:54 15,1 13,1   Kalm   1022,2 88 -
01:59 14,9 12,9   Kalm   1022,2 88 -
02:04 14,8 13,0   Kalm   1022,2 89 -
02:09 14,6 12,8   Kalm   1022,2 89 -
02:14 14,4 12,6   Kalm   1022,2 89 -
02:19 14,3 12,5   Kalm   1022,2 89 -
02:24 14,2 12,4   Kalm   1022,2 89 -
02:29 14,1 12,3   Kalm   1021,9 89 -
02:34 13,9 12,3   Kalm   1021,9 90 -
02:39 13,9 12,3   Kalm   1021,9 90 -
02:44 13,8 12,2   Kalm   1021,9 90 -
02:49 13,7 12,3   Kalm   1021,9 91 -
02:54 13,7 12,3   Kalm   1021,9 91 -
02:59 13,7 12,3   Kalm   1021,9 91 -
03:04 13,6 12,2   Kalm   1021,9 91 -
03:09 13,4 12,0   Kalm   1021,6 91 -
03:14 13,4 12,0   Kalm   1021,9 91 -
03:19 13,3 11,9   Kalm   1021,6 91 -
03:24 13,2 11,8   Kalm   1021,6 91 -
03:29 13,1 11,7   Kalm   1021,9 91 -
03:34 13,1 11,7   Kalm   1021,9 91 -
03:39 12,9 11,5   Kalm   1021,9 91 -
03:44 12,9 11,6   Kalm   1021,9 92 -
03:49 12,8 11,5   Kalm   1021,9 92 -
03:54 12,8 11,5   Kalm   1021,6 92 -
03:59 12,8 11,7   Kalm   1021,9 93 -
04:04 12,8 11,7   Kalm   1021,9 93 -
04:09 12,7 11,4   Kalm   1021,6 92 -
04:14 12,8 11,7   Kalm   1021,6 93 -
04:19 12,8 11,7   Kalm   1021,6 93 -
04:24 12,7 11,6   Kalm   1021,6 93 -
04:29 12,7 11,6   Kalm   1021,6 93 -
04:34 12,7 11,6   Kalm   1021,6 93 -
04:39 12,6 11,5   Kalm   1021,6 93 -
04:44 12,6 11,5   Kalm   1021,6 93 -
04:49 12,6 11,5   Kalm   1021,6 93 -
04:54 12,5 11,4   Kalm   1021,6 93 -
04:59 12,5 11,4   Kalm   1021,6 93 -
05:04 12,4 11,3   Kalm   1021,6 93 -
05:09 12,4 11,3   Kalm   1021,6 93 -
05:14 12,3 11,2   Kalm   1021,6 93 -
05:19 12,3 11,2   Kalm   1021,6 93 -
05:24 12,3 11,2   Kalm   1021,6 93 -
05:29 12,2 11,1   Kalm   1021,6 93 -
05:34 12,2 11,1   Kalm   1021,6 93 -
05:39 12,2 11,1   Kalm   1021,2 93 -
05:44 12,2 11,1   Kalm   1021,2 93 -
05:49 12,1 11,0   Kalm   1021,6 93 -
05:54 12,2 11,3   Kalm   1021,2 94 -
05:59 12,2 11,3   Kalm   1021,2 94 -
06:04 12,2 11,3   Kalm   1021,2 94 -
06:09 12,2 11,3   Kalm   1021,2 94 -
06:14 12,2 11,3   Kalm   1021,2 94 -
06:19 12,2 11,3   Kalm   1021,2 94 -
06:24 12,1 11,2   Kalm   1021,2 94 -
06:29 12,1 11,2   Kalm   1021,2 94 -
06:34 12,1 11,2   Kalm   1021,2 94 -
06:39 12,1 11,2   Kalm   1021,2 94 -
06:44 12,2 11,3   Kalm   1021,2 94 -
06:49 12,3 11,5   Kalm   1021,2 95 -
06:54 12,4 11,6   Kalm   1021,6 95 -
06:59 12,6 11,8   Kalm   1021,2 95 -
07:04 12,7 11,9   Kalm   1021,6 95 -
07:09 12,9 12,1   Kalm   1021,6 95 -
07:14 13,1 12,3   Kalm   1021,6 95 -
07:19 13,3 12,5   Kalm 1,6 1021,6 95 -
07:24 13,4 12,6   Kalm   1021,6 95 -
07:29 13,6 12,8   Kalm   1021,6 95 -
07:34 13,8 13,0   Kalm   1021,6 95 -
07:39 13,9 13,1   Kalm   1021,6 95 -
07:44 14,2 13,4   Kalm   1021,6 95 -
07:49 14,3 13,5   Kalm   1021,6 95 -
07:54 14,6 13,8   Kalm   1021,6 95 -
07:59 14,7 13,9 1,8 ZZW 4,8 1021,6 95 -
Dagelijkse Samenvatting Zondag 19 augustus 2018
Tijd Temp. ( °C ) Dew pt. ( °C ) Wind ( km/h ) van Windvlaag ( km/h ) Luchtdruk ( hPa ) Humid.( % ) Rainrate ( cm )
Hoog16,7 14,2 1,8 ZZW ( 2/2 ) 4,8 1022,2 95 -
Gemiddeld13,8 12,4 0,0 Kalm #95/96 0,1 1021,8 91 -
Laag12,1 11,0 -   0,0 1021,2 85 -
Dagelijkse Tabular details for Zondag 19 augustus 2018
Tijd Temp. ( °C ) Dew pt. ( °C ) Wind ( km/h ) van Windvlaag ( km/h ) Luchtdruk ( hPa ) Humid.( % ) Rainrate ( cm )
00:04 16,7 14,2   Kalm   1022,2 85 -
00:09 16,7 14,2   Kalm   1022,2 85 -
00:14 16,7 14,2   Kalm   1022,2 85 -
00:19 16,7 14,2   Kalm   1022,2 85 -
00:24 16,7 14,2   Kalm   1022,2 85 -
00:29 16,7 14,2   Kalm   1022,2 85 -
00:34 16,7 14,2   Kalm   1022,2 85 -
00:39 16,7 14,2   Kalm   1022,2 85 -
00:44 16,7 14,2   Kalm   1022,2 85 -
00:49 16,7 14,2   Kalm   1022,2 85 -
00:54 16,7 14,2   Kalm   1022,2 85 -
00:59 16,7 14,2   Kalm   1022,2 85 -
01:04 16,7 14,2   Kalm   1022,2 85 -
01:09 16,6 14,1   Kalm   1022,2 85 -
01:14 16,5 14,1   Kalm   1022,2 86 -
01:19 16,3 13,8   Kalm   1022,2 85 -
01:24 16,2 13,9   Kalm   1022,2 86 -
01:29 16,0 13,7   Kalm   1022,2 86 -
01:34 15,8 13,5   Kalm   1022,2 86 -
01:39 15,6 13,4   Kalm   1022,2 87 -
01:44 15,4 13,2   Kalm   1022,2 87 -
01:49 15,3 13,1   Kalm   1022,2 87 -
01:54 15,1 13,1   Kalm   1022,2 88 -
01:59 14,9 12,9   Kalm   1022,2 88 -
02:04 14,8 13,0   Kalm   1022,2 89 -
02:09 14,6 12,8   Kalm   1022,2 89 -
02:14 14,4 12,6   Kalm   1022,2 89 -
02:19 14,3 12,5   Kalm   1022,2 89 -
02:24 14,2 12,4   Kalm   1022,2 89 -
02:29 14,1 12,3   Kalm   1021,9 89 -
02:34 13,9 12,3   Kalm   1021,9 90 -
02:39 13,9 12,3   Kalm   1021,9 90 -
02:44 13,8 12,2   Kalm   1021,9 90 -
02:49 13,7 12,3   Kalm   1021,9 91 -
02:54 13,7 12,3   Kalm   1021,9 91 -
02:59 13,7 12,3   Kalm   1021,9 91 -
03:04 13,6 12,2   Kalm   1021,9 91 -
03:09 13,4 12,0   Kalm   1021,6 91 -
03:14 13,4 12,0   Kalm   1021,9 91 -
03:19 13,3 11,9   Kalm   1021,6 91 -
03:24 13,2 11,8   Kalm   1021,6 91 -
03:29 13,1 11,7   Kalm   1021,9 91 -
03:34 13,1 11,7   Kalm   1021,9 91 -
03:39 12,9 11,5   Kalm   1021,9 91 -
03:44 12,9 11,6   Kalm   1021,9 92 -
03:49 12,8 11,5   Kalm   1021,9 92 -
03:54 12,8 11,5   Kalm   1021,6 92 -
03:59 12,8 11,7   Kalm   1021,9 93 -
04:04 12,8 11,7   Kalm   1021,9 93 -
04:09 12,7 11,4   Kalm   1021,6 92 -
04:14 12,8 11,7   Kalm   1021,6 93 -
04:19 12,8 11,7   Kalm   1021,6 93 -
04:24 12,7 11,6   Kalm   1021,6 93 -
04:29 12,7 11,6   Kalm   1021,6 93 -
04:34 12,7 11,6   Kalm   1021,6 93 -
04:39 12,6 11,5   Kalm   1021,6 93 -
04:44 12,6 11,5   Kalm   1021,6 93 -
04:49 12,6 11,5   Kalm   1021,6 93 -
04:54 12,5 11,4   Kalm   1021,6 93 -
04:59 12,5 11,4   Kalm   1021,6 93 -
05:04 12,4 11,3   Kalm   1021,6 93 -
05:09 12,4 11,3   Kalm   1021,6 93 -
05:14 12,3 11,2   Kalm   1021,6 93 -
05:19 12,3 11,2   Kalm   1021,6 93 -
05:24 12,3 11,2   Kalm   1021,6 93 -
05:29 12,2 11,1   Kalm   1021,6 93 -
05:34 12,2 11,1   Kalm   1021,6 93 -
05:39 12,2 11,1   Kalm   1021,2 93 -
05:44 12,2 11,1   Kalm   1021,2 93 -
05:49 12,1 11,0   Kalm   1021,6 93 -
05:54 12,2 11,3   Kalm   1021,2 94 -
05:59 12,2 11,3   Kalm   1021,2 94 -
06:04 12,2 11,3   Kalm   1021,2 94 -
06:09 12,2 11,3   Kalm   1021,2 94 -
06:14 12,2 11,3   Kalm   1021,2 94 -
06:19 12,2 11,3   Kalm   1021,2 94 -
06:24 12,1 11,2   Kalm   1021,2 94 -
06:29 12,1 11,2   Kalm   1021,2 94 -
06:34 12,1 11,2   Kalm   1021,2 94 -
06:39 12,1 11,2   Kalm   1021,2 94 -
06:44 12,2 11,3   Kalm   1021,2 94 -
06:49 12,3 11,5   Kalm   1021,2 95 -
06:54 12,4 11,6   Kalm   1021,6 95 -
06:59 12,6 11,8   Kalm   1021,2 95 -
07:04 12,7 11,9   Kalm   1021,6 95 -
07:09 12,9 12,1   Kalm   1021,6 95 -
07:14 13,1 12,3   Kalm   1021,6 95 -
07:19 13,3 12,5   Kalm 1,6 1021,6 95 -
07:24 13,4 12,6   Kalm   1021,6 95 -
07:29 13,6 12,8   Kalm   1021,6 95 -
07:34 13,8 13,0   Kalm   1021,6 95 -
07:39 13,9 13,1   Kalm   1021,6 95 -
07:44 14,2 13,4   Kalm   1021,6 95 -
07:49 14,3 13,5   Kalm   1021,6 95 -
07:54 14,6 13,8   Kalm   1021,6 95 -
07:59 14,7 13,9 1,8 ZZW 4,8 1021,6 95 -

Download your copy of this data-set  here

Our weather-data as stored at Weather Underground. Script ontwikkeld door Jim McMurry. Aangepast voor de template door Leuven-Template.eu

U vindt ons ook hier:

Het Weer Aktueel

UK Metoffice

European Weather Network

WeatherCloud

Weather Underground

Benelux Weer Netwerk

AWEKAS

Citizen Weather Observer Program (CWOP)

Apparatuur in gebruik:

Weerstation
Davis VP2

Weerprogramma
Meteobridge

Weercomputer
TP-Link MR3020

Davis VP2

Meteobridge

TP-Link MR3020